Regional Weather Roundup
Issued by NWS

Home | Current Version | Previous Version | Graphics & Text | Print | Product List | Glossary On
Versions: 1 2 3 4 5 6 7 8 9 10 11 12 13 14 15 16 17 18 19 20 21 22 23 24 25 26 27 28 29 30 31 32 33 34 35 36 37 38 39 40 41 42 43 44 45 46 47 48 49 50
000
ASUS44 KMEG 211210
RWRTN
TENNESSEE HOURLY STATE WEATHER ROUNDUP
NATIONAL WEATHER SERVICE MEMPHIS TN
700 AM CDT TUE APR 21 2015

TNZ002-004-019-021-049-052-054-088>092-211300-
WEST TENNESSEE

CITY           SKY/WX    TMP DP  RH WIND       PRES   REMARKS
MEMPHIS INTL   PTCLDY    47  39  74 CALM      30.01R
NWS MEMPHIS      N/A     44 N/A N/A MISG        N/A
JACKSON        CLEAR     43  38  82 S5        30.00R
DYERSBURG      CLEAR     46  30  53 S3        29.99R
UNION CITY     CLEAR     43  32  65 S3        29.96R
PARIS            N/A     39  36  87 SW5       29.97R
LEXINGTON      CLEAR     37  37 100 CALM      29.98R
SAVANNAH       CLEAR     37  32  81 CALM      30.01R
$$

TNZ008-025-027-028-033-062-065-066-211300-
NORTH MIDDLE TENNESSEE

CITY           SKY/WX    TMP DP  RH WIND       PRES   REMARKS
NASHVILLE      CLEAR     44  42  93 CALM      29.98R
CLARKSVILLE    CLEAR     45  41  86 SW7       29.95R
SMYRNA         CLEAR     42  41  97 CALM      29.99R
COOKEVILLE     SUNNY     41  41 100 CALM      29.95R
CROSSVILLE     SUNNY     41  38  89 CALM      29.95R
$$

TNZ061-075-076-078-094-096-097-211300-
SOUTH MIDDLE TENNESSEE

CITY           SKY/WX    TMP DP  RH WIND       PRES   REMARKS
FAYETTEVILLE   CLEAR     43  39  87 W3        29.98R
TULLAHOMA      SUNNY     43  37  81 CALM      29.97S
WINCHESTER     SUNNY     41  41 100 CALM      29.98R
MCMINNVILLE    SUNNY     41  41 100 CALM      29.96R
COLUMBIA       CLEAR     43  32  65 CALM      29.98R
SHELBYVILLE    CLEAR     41  41 100 CALM      29.99R
$$

TNZ017-018-042-046-047-211300-
NORTHEAST TENNESSEE

CITY           SKY/WX    TMP DP  RH WIND       PRES   REMARKS
TRI CITIES     MOSUNNY   48  43  82 SW6       29.93R
ELIZABETHTON   MOSUNNY   46  43  87 SW3       29.92R
$$

TNZ012-013-036-069-073-074-211300-
CENTRAL EAST TENNESSEE

CITY           SKY/WX    TMP DP  RH WIND       PRES   REMARKS
KNOXVILLE      MOSUNNY   49  43  80 CALM      29.95R
OAK RIDGE      SUNNY     48  43  82 W3        29.97R
GATLINBURG     MOSUNNY   46  43  87 CALM      29.95R
$$

TNZ083-085-099-211300-
SOUTHEAST TENNESSEE

CITY           SKY/WX    TMP DP  RH WIND       PRES   REMARKS
CHATTANOOGA    SUNNY     49  45  86 CALM      29.98R
$$

SKY/WX REPORTED AS FAIR MEANS FEW OR NO CLOUDS BELOW
12 THOUSAND FEET.



USA.gov is the U.S. government's official web portal to all federal, state and local government web resources and services.